[[{"header":{"parameterUnit":"m.s-1","parameterCategory":1,"la1":30.2991,"la2":30.254,"lo1":-89.0895,"lo2":-89.0444,"dy":0.0017,"dx":0.0017,"nx":28,"ny":28,"refTime":"2025-06-07T03:00:00:Z","depth":0,"parameterNumber":2,"parameterNumberName":"U-component_of_WINDS"},"data":[0,0,0,0,0,0,0,0,0,0,0,0,0,0,0,0,0,0,0,0,0,0,0,0,0,0,0,0,0,0,0,0,0,0,0,0,0,0,0,0,0,0,0,0,0,0,0,0,0,0,0,0,0,0,0,0,0,0,3.0583,3.0584,0,3.0724,3.0726,3.0727,3.0782,3.0782,3.0782,3.0781,3.0926,3.0931,3.0935,0,0,0,0,0,0,0,0,0,0,0,0,0,3.036,3.0364,3.0582,3.0584,3.0586,3.0724,3.0726,3.0728,3.0782,3.0782,3.0781,3.0781,3.0925,3.093,3.0935,0,0,0,0,0,0,0,0,0,0,0,0,0,3.0475,3.0365,3.0582,3.063,3.0636,3.0723,3.0726,3.0728,3.0782,3.0782,3.0781,3.0781,3.0923,3.093,3.0936,3.0987,0,0,3.0955,3.0958,0,0,0,0,0,0,0,0,3.0468,3.0483,3.0621,3.0627,3.0633,3.0735,3.0701,3.0815,3.0783,3.0727,3.0781,3.078,3.0863,3.0874,3.0902,3.0994,3.1,3.0956,3.096,3.0962,3.0964,0,0,0,0,0,0,0,3.046,3.0477,3.0639,3.0623,3.063,3.0644,3.066,3.0723,3.0797,3.0732,3.0736,3.0752,3.0866,3.0896,3.0906,3.1002,3.0956,3.0961,3.0965,3.0968,3.1143,3.1144,0,0,0,0,0,0,3.0444,3.047,3.0634,3.0643,3.0547,3.0649,3.0666,3.0703,3.0796,3.081,3.0752,3.0754,3.0885,3.0899,3.0911,3.0978,3.0962,3.0968,3.0972,3.1142,3.1143,3.1144,0,0,0,0,0,0,3.0439,3.0458,3.0628,3.0558,3.058,3.0653,3.0694,3.0706,3.0736,3.0812,3.0825,3.0769,3.0886,3.0902,3.0968,3.0984,3.0971,3.0977,3.1141,3.1143,3.1144,3.1111,0,0,0,0,0,0,3.0432,3.0456,3.0476,3.0558,3.0584,3.0682,3.0695,3.0709,3.0746,3.075,3.0831,3.0844,3.0886,3.0958,3.0974,3.0992,3.0982,3.114,3.1142,3.1143,3.1111,3.1111,3.1111,0,0,0,0,0,3.0424,3.0461,3.0477,3.0496,3.061,3.0683,3.0698,3.0746,3.0747,3.0768,3.0817,3.0841,3.0979,3.0964,3.0983,3.1003,3.1139,3.1141,3.1143,3.1111,3.1111,3.1111,0,0,0,0,0,0,3.0379,3.0472,3.0491,3.0555,3.061,3.0692,3.072,3.0744,3.0801,3.0802,3.0859,3.0877,3.0938,3.0977,3.0959,3.1058,3.1061,3.1067,3.103,3.1031,3.1031,3.102,3.0987,0,0,0,0,0,3.0376,3.0427,3.0506,3.0555,3.0582,3.0646,3.0679,3.0712,3.0772,3.0795,3.0849,3.0906,3.0963,3.0999,3.1055,3.1117,3.1135,3.114,3.114,3.1139,3.1144,3.118,3.1183,3.1151,3.1151,3.1151,0,0,3.0372,3.0429,3.0458,3.0548,3.0594,3.0646,3.0665,3.0719,3.0758,3.0804,3.0869,3.091,3.0978,3.1042,3.1073,3.1076,3.1157,3.1142,3.1141,3.1146,3.1182,3.1185,3.1188,3.1152,3.1152,3.1151,0,0,3.039,3.0438,3.0484,3.0531,3.0602,3.0644,3.0655,3.0733,3.0762,3.0829,3.0864,3.0911,3.1007,3.1055,3.1091,3.1127,3.1152,3.1144,3.1144,3.1179,3.1181,3.1184,3.1198,3.1202,3.1148,3.1148,3.1148,0,3.0375,3.0454,3.0505,3.0557,3.0596,3.064,3.0687,3.073,3.0815,3.0841,3.0844,3.0966,3.1015,3.1091,3.11,3.1127,3.1142,3.1135,3.1177,3.118,3.1183,3.1197,3.1202,3.1147,3.1147,3.1147,3.1147,0,3.0433,3.0487,3.0516,3.0598,3.064,3.0689,3.0748,3.0785,3.0813,3.0855,3.0923,3.0983,3.1052,3.1073,3.1101,3.1153,3.1153,3.1166,3.117,3.1184,3.1198,3.1204,3.1145,3.1145,3.1146,3.1146,0,0,3.0426,3.0536,3.0545,3.0583,3.0665,3.0708,3.076,3.0828,3.0858,3.0916,3.0961,3.1042,3.1054,3.1095,3.113,3.116,3.1186,3.1169,3.1172,3.1171,3.1248,3.1238,3.1243,3.1202,3.1204,3.1205,3.1242,0,3.0455,3.055,3.0598,3.0672,3.0723,3.0765,3.0811,3.0866,3.0907,3.0956,3.1001,3.1058,3.1069,3.1095,3.1127,3.1176,3.1202,3.1174,3.1246,3.1248,3.1228,3.125,3.124,3.1272,3.1248,3.1249,3.1249,0,3.0502,3.056,3.0639,3.0715,3.0739,3.0778,3.0845,3.0892,3.0955,3.0983,3.1029,3.1063,3.112,3.112,3.1199,3.1179,3.1211,3.1239,3.1242,3.1251,3.1249,3.126,3.1284,3.1289,3.1258,3.1258,3.1257,0,3.049,3.0587,3.0648,3.0679,3.0769,3.0796,3.0835,3.0898,3.0936,3.0994,3.1019,3.1083,3.1118,3.1167,3.1217,3.1213,3.1292,3.1296,3.1317,3.1316,3.1332,3.133,3.1362,3.1352,3.1352,3.1352,3.1351,0,3.0518,3.0565,3.0643,3.068,3.0735,3.0789,3.0841,3.0883,3.0939,3.0985,3.1026,3.1068,3.1132,3.1183,3.1222,3.1282,3.1298,3.1322,3.1332,3.1319,3.1316,3.1341,3.134,3.1353,3.1353,3.1352,3.1352,0,3.0514,3.0568,3.0637,3.0717,3.0738,3.0774,3.0843,3.0881,3.0923,3.0982,3.0998,3.1066,3.1128,3.1183,3.1265,3.1292,3.1353,3.1365,3.1331,3.1337,3.1355,3.1353,3.1404,3.1414,3.1396,3.1396,3.1397,0,3.0528,3.0566,3.065,3.0684,3.0722,3.0776,3.0815,3.087,3.0909,3.0985,3.1013,3.1078,3.1133,3.123,3.1287,3.135,3.1364,3.1378,3.1374,3.1359,3.1365,3.1362,3.1367,3.1377,3.1377,3.1377,3.1377,0,3.0548,3.0574,3.0628,3.0693,3.0738,3.0792,3.0846,3.0872,3.0937,3.0979,3.1043,3.1085,3.1169,3.1233,3.1303,3.1343,3.1372,3.1378,3.1386,3.1373,3.1352,3.1364,3.1331,3.1377,3.1377,3.1377,3.1377,3.1377,3.0555,3.059,3.0655,3.0715,3.0762,3.0812,3.0851,3.0899,3.0953,3.1026,3.1055,3.112,3.1184,3.128,3.132,3.1373,3.1378,3.1389,3.1393,3.1395,3.1393,3.1344,3.1385,3.1385,3.1386,3.1386,3.1386,0,3.0577,3.0621,3.0676,3.0751,3.0798,3.082,3.0882,3.092,3.0977,3.1034,3.1087,3.116,3.1223,3.1285,3.135,3.138,3.1395,3.1396,3.1394,3.1403,3.1384,3.137,3.1383,3.1383,3.1383,3.1383,3.1383,3.1383,3.0595,3.0656,3.0689,3.0774,3.0818,3.0882,3.0915,3.0962,3.1007,3.1088,3.114,3.118,3.1239,3.1309,3.1368,3.1384,3.1407,3.1404,3.1424,3.1405,3.1405,3.1404,3.1392,3.1409,3.1409,3.144,3.144,3.144]},{"header":{"parameterUnit":"m.s-1","parameterCategory":1,"la1":30.2991,"la2":30.254,"lo1":-89.0895,"lo2":-89.0444,"dy":0.0017,"dx":0.0017,"nx":28,"ny":28,"refTime":"2025-06-07T03:00:00:Z","depth":0,"parameterNumber":3,"parameterNumberName":"V-component_of_WINDS"},"data":[0,0,0,0,0,0,0,0,0,0,0,0,0,0,0,0,0,0,0,0,0,0,0,0,0,0,0,0,0,0,0,0,0,0,0,0,0,0,0,0,0,0,0,0,0,0,0,0,0,0,0,0,0,0,0,0,0,0,0.4338,0.4338,0,0.4395,0.4395,0.4396,0.4413,0.4412,0.4412,0.4412,0.4469,0.4471,0.4473,0,0,0,0,0,0,0,0,0,0,0,0,0,0.424,0.4242,0.4337,0.4338,0.4339,0.4395,0.4396,0.4396,0.4413,0.4412,0.4412,0.4412,0.4468,0.4471,0.4473,0,0,0,0,0,0,0,0,0,0,0,0,0,0.4288,0.4242,0.4337,0.4354,0.4356,0.4395,0.4396,0.4397,0.4413,0.4412,0.4412,0.4412,0.4468,0.447,0.4473,0.4499,0,0,0.4481,0.4482,0,0,0,0,0,0,0,0,0.4285,0.4292,0.4351,0.4353,0.4355,0.4396,0.4382,0.4431,0.4413,0.4391,0.4412,0.4411,0.4445,0.445,0.4461,0.4502,0.4504,0.4482,0.4483,0.4484,0.4485,0,0,0,0,0,0,0,0.4282,0.4289,0.436,0.4352,0.4354,0.4358,0.4364,0.4391,0.442,0.4393,0.4394,0.4401,0.4446,0.4459,0.4463,0.4505,0.4481,0.4484,0.4486,0.4487,0.4568,0.4568,0,0,0,0,0,0,0.4276,0.4286,0.4358,0.4362,0.4319,0.436,0.4367,0.4383,0.442,0.4425,0.4401,0.4402,0.4454,0.446,0.4465,0.4497,0.4484,0.4487,0.4488,0.4567,0.4568,0.4568,0,0,0,0,0,0,0.4274,0.4282,0.4356,0.4325,0.4334,0.4362,0.438,0.4385,0.4397,0.4426,0.4431,0.4409,0.4454,0.4461,0.449,0.4499,0.4488,0.4491,0.4567,0.4567,0.4568,0.4561,0,0,0,0,0,0,0.4271,0.4282,0.4292,0.4325,0.4336,0.4381,0.4381,0.4386,0.4402,0.4403,0.4435,0.4439,0.4454,0.4486,0.4493,0.4503,0.4493,0.4566,0.4567,0.4568,0.4561,0.4562,0.4562,0,0,0,0,0,0.4268,0.4288,0.4293,0.4301,0.435,0.4382,0.4388,0.4405,0.4403,0.4413,0.4432,0.4438,0.4497,0.4489,0.4497,0.4507,0.4565,0.4567,0.4568,0.456,0.4562,0.4562,0,0,0,0,0,0,0.4256,0.4293,0.4298,0.433,0.4352,0.4384,0.4398,0.4406,0.4429,0.4429,0.4449,0.4456,0.4483,0.4498,0.4489,0.4533,0.4531,0.4534,0.4523,0.4524,0.4525,0.4521,0.4495,0,0,0,0,0,0.4257,0.428,0.4311,0.4336,0.4347,0.437,0.4385,0.4396,0.442,0.443,0.445,0.4472,0.4496,0.4511,0.4534,0.4563,0.4569,0.4574,0.4575,0.4575,0.4577,0.4593,0.4595,0.4572,0.4572,0.4572,0,0,0.4259,0.4282,0.4296,0.4334,0.4353,0.4375,0.4378,0.4403,0.4419,0.4433,0.4462,0.4477,0.4504,0.4532,0.4546,0.4546,0.4585,0.4577,0.4577,0.4579,0.4594,0.4596,0.4598,0.4573,0.4573,0.4573,0,0,0.4276,0.4296,0.4318,0.4337,0.4365,0.4381,0.4386,0.4416,0.4427,0.4457,0.4467,0.4487,0.4527,0.4545,0.4559,0.4581,0.4587,0.4587,0.4592,0.4607,0.4608,0.461,0.4617,0.4619,0.4589,0.4589,0.4589,0,0.4275,0.4311,0.4329,0.4352,0.4368,0.4382,0.4404,0.4421,0.4455,0.4466,0.4465,0.4515,0.4533,0.4566,0.4571,0.4582,0.4588,0.4584,0.4607,0.4609,0.461,0.4617,0.462,0.4589,0.4589,0.4589,0.4589,0,0.4308,0.4332,0.4347,0.438,0.4397,0.442,0.4441,0.4456,0.4466,0.4481,0.4509,0.4532,0.456,0.4568,0.4578,0.4602,0.4601,0.4603,0.4601,0.4612,0.4619,0.4622,0.4589,0.4589,0.4589,0.4589,0,0,0.4319,0.4361,0.4366,0.4381,0.4413,0.4431,0.4454,0.4481,0.4494,0.4516,0.4536,0.4568,0.457,0.4587,0.4598,0.4611,0.4625,0.4611,0.4612,0.4613,0.4652,0.465,0.4653,0.463,0.463,0.4631,0.465,0,0.4339,0.4381,0.4398,0.4432,0.4454,0.4466,0.4486,0.4507,0.4521,0.4541,0.4557,0.458,0.4581,0.4591,0.4604,0.4621,0.4633,0.462,0.4647,0.4648,0.464,0.4657,0.4655,0.4672,0.4653,0.4653,0.4654,0,0.4369,0.4392,0.4428,0.4456,0.4466,0.4483,0.4509,0.4528,0.4552,0.4561,0.4578,0.4589,0.4612,0.4608,0.464,0.463,0.4642,0.4652,0.4653,0.4656,0.4651,0.466,0.4678,0.4681,0.4658,0.4658,0.4657,0,0.4372,0.4412,0.4439,0.4451,0.4485,0.4497,0.4511,0.4534,0.4549,0.4571,0.4581,0.4605,0.4618,0.4636,0.4652,0.4648,0.4682,0.468,0.469,0.4689,0.4696,0.4696,0.4716,0.4704,0.4704,0.4704,0.4704,0,0.4393,0.4414,0.4441,0.4458,0.4482,0.45,0.4522,0.4538,0.4558,0.4576,0.4588,0.4605,0.4626,0.4645,0.4657,0.4681,0.4687,0.4695,0.4698,0.4694,0.4693,0.4702,0.4701,0.4705,0.4705,0.4705,0.4704,0,0.4402,0.4421,0.445,0.4479,0.4487,0.4503,0.4528,0.4544,0.4558,0.4581,0.4588,0.461,0.4634,0.4651,0.4682,0.469,0.4715,0.4718,0.4707,0.4709,0.4718,0.4716,0.4745,0.4749,0.4734,0.4734,0.4734,0,0.4413,0.443,0.4461,0.4475,0.4489,0.4511,0.4526,0.4544,0.4559,0.4586,0.4598,0.4622,0.4643,0.4679,0.4698,0.472,0.4724,0.4733,0.4728,0.4723,0.4724,0.4723,0.4724,0.4733,0.4733,0.4733,0.4733,0,0.4432,0.4441,0.4462,0.4487,0.4505,0.4525,0.4546,0.4556,0.4577,0.4593,0.4617,0.4633,0.4664,0.4687,0.4712,0.4725,0.4733,0.4735,0.4738,0.4734,0.4727,0.473,0.4709,0.4734,0.4734,0.4734,0.4734,0.4734,0.4443,0.4458,0.4482,0.4505,0.4522,0.4541,0.4557,0.4573,0.4594,0.4621,0.4629,0.4654,0.4676,0.4709,0.4723,0.4742,0.4742,0.4747,0.4749,0.4749,0.4749,0.4724,0.4746,0.4746,0.4746,0.4746,0.4747,0,0.4462,0.4478,0.4499,0.4527,0.4545,0.4551,0.4573,0.4588,0.461,0.463,0.4649,0.4676,0.4699,0.4719,0.4742,0.4753,0.4757,0.4758,0.4758,0.476,0.4748,0.4742,0.4755,0.4755,0.4755,0.4755,0.4755,0.4755,0.4474,0.45,0.4511,0.4544,0.456,0.4584,0.4597,0.4613,0.4629,0.4659,0.4678,0.4691,0.471,0.4735,0.4755,0.476,0.4768,0.4769,0.4775,0.4762,0.4761,0.476,0.4755,0.477,0.477,0.4786,0.4786,0.4786]}]]